20050430,000017,1328250,34.393732,-122.269278,15.817,32.988,0.198,0.317
20050430,000048,1328281,34.393938,-122.269198,15.820,32.987,0.198,0.322
20050430,000117,1328310,34.394120,-122.269113,15.817,32.992,0.198,0.330
20050430,000147,1328340,34.394313,-122.269025,15.820,32.990,0.198,0.330
20050430,000217,1328370,34.394530,-122.268928,15.824,32.986,0.204,0.342
20050430,000248,1328401,34.394730,-122.268780,15.822,32.990,0.198,0.309
20050430,000317,1328430,34.394880,-122.268560,15.823,32.992,0.192,0.281
20050430,000347,1328460,34.395010,-122.268298,15.822,32.992,0.198,0.311
20050430,000417,1328490,34.395025,-122.268005,15.819,32.994,0.198,0.322
20050430,000447,1328520,34.395023,-122.267722,15.816,32.998,0.198,0.334
20050430,000517,1328550,34.394968,-122.267533,15.811,33.003,0.198,0.325
20050430,000547,1328580,34.394882,-122.267460,15.810,33.005,0.204,0.331
20050430,000617,1328610,34.394782,-122.267458,15.806,33.008,0.210,0.355
20050430,000647,1328640,34.394663,-122.267530,15.805,33.008,0.198,0.335
20050430,000717,1328670,34.394537,-122.267610,15.806,33.007,0.204,0.346
20050430,000747,1328700,34.394377,-122.267673,15.810,33.002,0.210,0.354
20050430,000818,1328731,34.394268,-122.267665,15.801,33.009,0.204,0.339
20050430,000847,1328760,34.394202,-122.267628,15.810,33.000,0.204,0.340
20050430,000917,1328790,34.394180,-122.267558,15.793,33.012,0.204,0.325
20050430,000947,1328820,34.394148,-122.267425,15.786,33.016,0.198,0.332
20050430,001018,1328851,34.394187,-122.267140,15.793,33.008,0.198,0.308
20050430,001047,1328880,34.394387,-122.266808,15.779,33.016,0.210,0.283
20050430,001117,1328910,34.394650,-122.266455,15.782,33.013,0.210,0.275
20050430,001148,1328941,34.394920,-122.266032,15.777,33.013,0.204,0.285
20050430,001217,1328970,34.395202,-122.265580,15.770,33.018,0.210,0.306
20050430,001248,1329001,34.395522,-122.265088,15.771,33.015,0.210,0.316
20050430,001317,1329030,34.395838,-122.264603,15.757,33.023,0.204,0.312
20050430,001347,1329060,34.396268,-122.263902,15.766,33.014,0.204,0.290
20050430,001418,1329091,34.396865,-122.262810,15.757,33.017,0.204,0.310
20050430,001447,1329120,34.397552,-122.261575,15.751,33.022,0.210,0.303
20050430,001517,1329150,34.398322,-122.260203,15.736,33.028,0.210,0.303
20050430,001547,1329180,34.399140,-122.258720,15.740,33.023,0.204,0.297
20050430,001618,1329211,34.399972,-122.257220,15.741,33.018,0.204,0.276
20050430,001647,1329240,34.400778,-122.255750,15.744,33.011,0.204,0.300
20050430,001717,1329270,34.401650,-122.254200,15.748,33.005,0.204,0.280
20050430,001747,1329300,34.402472,-122.252697,15.762,32.991,0.204,0.289
20050430,001817,1329330,34.403320,-122.251202,15.774,32.980,0.216,0.304
20050430,001847,1329360,34.404135,-122.249687,15.779,32.976,0.216,0.295
20050430,001917,1329390,34.404988,-122.248198,15.791,32.966,0.210,0.295
20050430,001948,1329421,34.405802,-122.246700,15.793,32.968,0.229,0.321
20050430,002018,1329451,34.406637,-122.245198,15.795,32.970,0.210,0.286
20050430,002047,1329480,34.407478,-122.243683,15.801,32.971,0.216,0.287
20050430,002117,1329510,34.408313,-122.242168,15.798,32.977,0.204,0.283
20050430,002147,1329540,34.409125,-122.240705,15.806,32.975,0.216,0.288
20050430,002217,1329570,34.409987,-122.239193,15.806,32.977,0.210,0.300
20050430,002247,1329600,34.410833,-122.237687,15.810,32.976,0.210,0.292
20050430,002317,1329630,34.411670,-122.236115,15.815,32.974,0.210,0.282
20050430,002347,1329660,34.412510,-122.234607,15.822,32.972,0.210,0.281
20050430,002417,1329690,34.413352,-122.233092,15.834,32.965,0.204,0.272
20050430,002447,1329720,34.414183,-122.231578,15.838,32.965,0.210,0.283
20050430,002517,1329750,34.415018,-122.230053,15.842,32.967,0.204,0.289
20050430,002547,1329780,34.415830,-122.228557,15.835,32.977,0.198,0.272
20050430,002617,1329810,34.416660,-122.227050,15.831,32.984,0.198,0.267
20050430,002647,1329840,34.417480,-122.225543,15.832,32.988,0.204,0.279
20050430,002718,1329871,34.418295,-122.224040,15.824,32.997,0.210,0.282
20050430,002748,1329901,34.419113,-122.222537,15.814,33.007,0.204,0.269
20050430,002818,1329931,34.419926,-122.221040,15.820,33.002,0.210,0.277
20050430,002847,1329960,34.420751,-122.219542,15.809,33.009,0.210,0.292
20050430,002917,1329990,34.421566,-122.218050,15.807,33.010,0.210,0.282
20050430,002947,1330020,34.422381,-122.216567,15.810,33.006,0.204,0.280
20050430,003018,1330051,34.423200,-122.215078,15.803,33.008,0.204,0.270
20050430,003047,1330080,34.424018,-122.213575,15.795,33.013,0.210,0.288
20050430,003117,1330110,34.424825,-122.212063,15.798,33.008,0.210,0.280
20050430,003147,1330140,34.425636,-122.210568,15.805,33.002,0.216,0.294
20050430,003217,1330170,34.426456,-122.209085,15.810,32.995,0.216,0.283
20050430,003247,1330200,34.427270,-122.207582,15.813,32.990,0.216,0.284
20050430,003317,1330230,34.428076,-122.206087,15.801,33.002,0.210,0.281
20050430,003347,1330260,34.428888,-122.204580,15.788,33.011,0.216,0.285
20050430,003418,1330291,34.429693,-122.203100,15.764,33.032,0.210,0.275
20050430,003448,1330321,34.430505,-122.201610,15.745,33.046,0.216,0.288
20050430,003517,1330350,34.431308,-122.200125,15.738,33.051,0.222,0.301
20050430,003548,1330381,34.432108,-122.198647,15.732,33.049,0.216,0.287
20050430,003617,1330410,34.432920,-122.197172,15.720,33.052,0.216,0.286
20050430,003647,1330440,34.433718,-122.195693,15.674,33.081,0.216,0.285
20050430,003717,1330470,34.434528,-122.194215,15.641,33.100,0.222,0.292
20050430,003747,1330500,34.435325,-122.192735,15.654,33.077,0.222,0.293
20050430,003818,1330531,34.436135,-122.191262,15.668,33.056,0.216,0.285
20050430,003847,1330560,34.436883,-122.189828,15.672,33.042,0.229,0.308
20050430,003918,1330591,34.437708,-122.188317,15.683,33.024,0.229,0.301
20050430,003947,1330620,34.438521,-122.186842,15.686,33.014,0.222,0.293
20050430,004017,1330650,34.439330,-122.185347,15.675,33.019,0.229,0.302
20050430,004048,1330681,34.440125,-122.183853,15.683,33.009,0.235,0.311
20050430,004117,1330710,34.440933,-122.182362,15.671,33.016,0.229,0.303
20050430,004147,1330740,34.441736,-122.180877,15.677,33.009,0.229,0.304
20050430,004218,1330771,34.442541,-122.179360,15.682,33.003,0.229,0.304
20050430,004247,1330800,34.443353,-122.177852,15.675,33.005,0.222,0.297
20050430,004317,1330830,34.444170,-122.176325,15.650,33.025,0.222,0.297
20050430,004347,1330860,34.444988,-122.174798,15.610,33.056,0.210,0.282
20050430,004417,1330890,34.445805,-122.173258,15.564,33.092,0.210,0.282
20050430,004447,1330920,34.446613,-122.171738,15.531,33.114,0.210,0.282
20050430,004518,1330951,34.447416,-122.170213,15.500,33.126,0.216,0.291
20050430,004547,1330980,34.448208,-122.168715,15.543,33.075,0.216,0.290
20050430,004617,1331010,34.449010,-122.167183,15.491,33.101,0.204,0.274
20050430,004648,1331041,34.449823,-122.165660,15.475,33.098,0.210,0.283
20050430,004717,1331070,34.450613,-122.164138,15.445,33.108,0.210,0.282
20050430,004747,1331100,34.451406,-122.162600,15.435,33.102,0.216,0.290
20050430,004817,1331130,34.452208,-122.161060,15.452,33.073,0.222,0.297
20050430,004848,1331161,34.452988,-122.159550,15.467,33.045,0.229,0.305
20050430,004917,1331190,34.453766,-122.158015,15.488,33.021,0.229,0.304
20050430,004947,1331220,34.454563,-122.156485,15.499,33.002,0.235,0.313
20050430,005017,1331250,34.455363,-122.154952,15.516,32.984,0.253,0.340
20050430,005047,1331280,34.456158,-122.153403,15.529,32.974,0.235,0.315
20050430,005117,1331310,34.456950,-122.151858,15.533,32.974,0.241,0.323
20050430,005147,1331340,34.457746,-122.150317,15.534,32.977,0.241,0.321
20050430,005218,1331371,34.458521,-122.148787,15.533,32.984,0.253,0.336
20050430,005247,1331400,34.459321,-122.147243,15.531,32.990,0.253,0.334
20050430,005317,1331430,34.460106,-122.145705,15.531,32.993,0.265,0.350
20050430,005347,1331460,34.460886,-122.144162,15.531,32.997,0.265,0.349
20050430,005417,1331490,34.461675,-122.142625,15.532,32.998,0.259,0.340
20050430,005448,1331521,34.462453,-122.141098,15.536,32.997,0.265,0.348
20050430,005517,1331550,34.463215,-122.139623,15.542,32.991,0.271,0.355
20050430,005547,1331580,34.464038,-122.138038,15.550,32.987,0.284,0.372
20050430,005617,1331610,34.464828,-122.136503,15.562,32.980,0.277,0.364
20050430,005648,1331641,34.465618,-122.134970,15.576,32.970,0.290,0.382
20050430,005717,1331670,34.466426,-122.133423,15.590,32.962,0.296,0.390
20050430,005747,1331700,34.467230,-122.131877,15.615,32.945,0.296,0.389
20050430,005817,1331730,34.468038,-122.130330,15.654,32.919,0.302,0.397
20050430,005847,1331760,34.468826,-122.128787,15.664,32.920,0.296,0.388
20050430,005917,1331790,34.469645,-122.127232,15.675,32.922,0.296,0.387
20050430,005948,1331821,34.470433,-122.125677,15.681,32.928,0.302,0.395
20050430,010017,1331850,34.471208,-122.124183,15.691,32.933,0.302,0.395
20050430,010047,1331880,34.472011,-122.122652,15.714,32.927,0.308,0.403
20050430,010118,1331911,34.472801,-122.121122,15.727,32.930,0.302,0.395
20050430,010147,1331940,34.473620,-122.119585,15.741,32.930,0.308,0.403
20050430,010217,1331970,34.474431,-122.118053,15.752,32.934,0.308,0.403
20050430,010247,1332000,34.475248,-122.116537,15.759,32.940,0.302,0.395
20050430,010317,1332030,34.476048,-122.115000,15.767,32.945,0.308,0.403
20050430,010348,1332061,34.476848,-122.113463,15.775,32.950,0.308,0.402
20050430,010417,1332090,34.477661,-122.111927,15.782,32.956,0.302,0.392
20050430,010447,1332120,34.478488,-122.110393,15.781,32.967,0.302,0.392
20050430,010518,1332151,34.479330,-122.108790,15.772,32.982,0.296,0.383
20050430,010547,1332180,34.480108,-122.107310,15.777,32.986,0.290,0.377
20050430,010618,1332211,34.480923,-122.105765,15.745,33.019,0.290,0.375
20050430,010647,1332240,34.481733,-122.104238,15.735,33.030,0.296,0.400
20050430,010717,1332270,34.482520,-122.102705,15.714,33.049,0.284,0.373
20050430,010747,1332300,34.483325,-122.101168,15.666,33.086,0.290,0.386
20050430,010818,1332331,34.484130,-122.099622,15.644,33.100,0.284,0.372
20050430,010847,1332360,34.484940,-122.098078,15.611,33.118,0.284,0.366
20050430,010918,1332391,34.485781,-122.096473,15.601,33.115,0.290,0.373
20050430,010948,1332421,34.486548,-122.094990,15.563,33.132,0.290,0.374
20050430,011018,1332451,34.487341,-122.093442,15.547,33.130,0.284,0.376
20050430,011048,1332481,34.488166,-122.091870,15.552,33.110,0.284,0.383
20050430,011118,1332511,34.488956,-122.090340,15.508,33.129,0.284,0.371
20050430,011148,1332541,34.489761,-122.088813,15.497,33.122,0.284,0.383
20050430,011218,1332571,34.490523,-122.087343,15.498,33.104,0.284,0.376
20050430,011248,1332601,34.491310,-122.085837,15.483,33.099,0.284,0.376
20050430,011318,1332631,34.492111,-122.084265,15.468,33.092,0.277,0.364
20050430,011348,1332661,34.492901,-122.082740,15.451,33.091,0.290,0.388
20050430,011418,1332691,34.493686,-122.081223,15.452,33.077,0.296,0.392
20050430,011448,1332721,34.494463,-122.079693,15.451,33.064,0.290,0.383
20050430,011518,1332751,34.495245,-122.078163,15.449,33.055,0.302,0.404
20050430,011548,1332781,34.496018,-122.076627,15.450,33.044,0.302,0.401
20050430,011618,1332811,34.496781,-122.075100,15.455,33.030,0.308,0.409
20050430,011648,1332841,34.497551,-122.073563,15.458,33.021,0.302,0.405
20050430,011718,1332871,34.498298,-122.072040,15.460,33.012,0.302,0.408
20050430,011748,1332901,34.499066,-122.070507,15.462,33.007,0.302,0.406
20050430,011818,1332931,34.499796,-122.069025,15.440,33.021,0.308,0.426
20050430,011848,1332961,34.500565,-122.067462,15.444,33.015,0.308,0.416
20050430,011918,1332991,34.501315,-122.065935,15.434,33.017,0.314,0.425
20050430,011948,1333021,34.502041,-122.064460,15.436,33.011,0.314,0.428
20050430,012018,1333051,34.502816,-122.062858,15.437,33.006,0.314,0.435
20050430,012048,1333081,34.503555,-122.061320,15.439,33.001,0.320,0.432
20050430,012118,1333111,34.504265,-122.059855,15.446,32.993,0.314,0.436
20050430,012148,1333141,34.505003,-122.058282,15.452,32.986,0.314,0.439
20050430,012218,1333171,34.505721,-122.056765,15.458,32.979,0.314,0.433
20050430,012249,1333202,34.506445,-122.055268,15.464,32.974,0.308,0.422
20050430,012318,1333231,34.507150,-122.053778,15.468,32.971,0.314,0.433
20050430,012348,1333261,34.507870,-122.052288,15.473,32.967,0.308,0.418
20050430,012418,1333291,34.508576,-122.050805,15.480,32.963,0.314,0.431
20050430,012449,1333322,34.509300,-122.049310,15.487,32.960,0.308,0.424
20050430,012518,1333351,34.510040,-122.047802,15.490,32.960,0.302,0.414
20050430,012548,1333381,34.510763,-122.046303,15.494,32.961,0.296,0.405
20050430,012618,1333411,34.511501,-122.044798,15.507,32.953,0.296,0.405
20050430,012648,1333441,34.512240,-122.043305,15.519,32.949,0.302,0.417
20050430,012718,1333471,34.512973,-122.041790,15.532,32.941,0.277,0.382
20050430,012748,1333501,34.513718,-122.040287,15.549,32.932,0.284,0.394
20050430,012818,1333531,34.514455,-122.038773,15.578,32.914,0.284,0.397
20050430,012848,1333561,34.515156,-122.037307,15.596,32.908,0.284,0.396
20050430,012919,1333592,34.515926,-122.035748,15.598,32.916,0.284,0.395
20050430,012948,1333621,34.516658,-122.034238,15.605,32.922,0.277,0.381
20050430,013018,1333651,34.517393,-122.032702,15.606,32.931,0.277,0.388
20050430,013048,1333681,34.518118,-122.031172,15.611,32.937,0.271,0.381
20050430,013118,1333711,34.518846,-122.029672,15.615,32.943,0.271,0.369
20050430,013148,1333741,34.519536,-122.028207,15.613,32.952,0.271,0.373
20050430,013218,1333771,34.520285,-122.026650,15.613,32.959,0.265,0.366
20050430,013249,1333802,34.520996,-122.025133,15.608,32.969,0.271,0.367
20050430,013318,1333831,34.521715,-122.023623,15.589,32.990,0.271,0.371
20050430,013348,1333861,34.522421,-122.022112,15.584,32.997,0.271,0.370
20050430,013418,1333891,34.523133,-122.020585,15.568,33.011,0.271,0.367
20050430,013448,1333921,34.523848,-122.019065,15.571,33.007,0.265,0.361
20050430,013518,1333951,34.524570,-122.017537,15.567,33.008,0.265,0.358
20050430,013549,1333982,34.525286,-122.016007,15.577,32.997,0.265,0.355
20050430,013618,1334011,34.526003,-122.014470,15.586,32.986,0.265,0.353
20050430,013648,1334041,34.526726,-122.012920,15.591,32.980,0.265,0.354
20050430,013719,1334072,34.527416,-122.011368,15.598,32.973,0.259,0.344
20050430,013748,1334101,34.528170,-122.009775,15.598,32.975,0.265,0.353
20050430,013818,1334131,34.528873,-122.008228,15.595,32.980,0.259,0.343
20050430,013848,1334161,34.529613,-122.006692,15.600,32.979,0.259,0.343
20050430,013919,1334192,34.530341,-122.005145,15.584,32.994,0.265,0.350
20050430,013948,1334221,34.531056,-122.003590,15.565,33.012,0.265,0.355
20050430,014018,1334251,34.531780,-122.002027,15.556,33.017,0.265,0.357
20050430,014048,1334281,34.532500,-122.000468,15.540,33.028,0.259,0.350
20050430,014119,1334312,34.533206,-121.998915,15.526,33.035,0.259,0.350
20050430,014149,1334342,34.533930,-121.997358,15.522,33.033,0.253,0.343
20050430,014218,1334371,34.534643,-121.995801,15.488,33.054,0.259,0.343
20050430,014249,1334402,34.535356,-121.994236,15.483,33.049,0.259,0.351
20050430,014318,1334431,34.536071,-121.992673,15.474,33.046,0.259,0.345
20050430,014348,1334461,34.536776,-121.991168,15.463,33.046,0.259,0.346
20050430,014418,1334491,34.537510,-121.989533,15.451,33.046,0.253,0.334
20050430,014448,1334521,34.538238,-121.987950,15.454,33.038,0.259,0.339
20050430,014518,1334551,34.538956,-121.986370,15.457,33.027,0.265,0.346
20050430,014548,1334581,34.539681,-121.984778,15.468,33.011,0.265,0.348
20050430,014618,1334611,34.540405,-121.983203,15.477,32.997,0.259,0.339
20050430,014648,1334641,34.541125,-121.981623,15.481,32.991,0.265,0.348
20050430,014718,1334671,34.541843,-121.980041,15.477,32.992,0.265,0.351
20050430,014749,1334702,34.542558,-121.978473,15.473,32.994,0.265,0.355
20050430,014818,1334731,34.543256,-121.976960,15.469,32.999,0.265,0.353
20050430,014849,1334762,34.543998,-121.975340,15.457,33.006,0.265,0.349
20050430,014918,1334791,34.544715,-121.973751,15.442,33.018,0.265,0.352
20050430,014948,1334821,34.545453,-121.972163,15.436,33.018,0.265,0.351
20050430,015018,1334851,34.546170,-121.970576,15.435,33.016,0.265,0.347
20050430,015048,1334881,34.546896,-121.968990,15.440,33.009,0.271,0.345
20050430,015119,1334912,34.547613,-121.967400,15.450,32.997,0.265,0.344
20050430,015148,1334941,34.548338,-121.965831,15.456,32.988,0.271,0.356
20050430,015218,1334971,34.549036,-121.964240,15.461,32.982,0.271,0.354
20050430,015248,1335001,34.549745,-121.962656,15.463,32.979,0.271,0.352
20050430,015318,1335031,34.550471,-121.961076,15.460,32.982,0.265,0.342
20050430,015349,1335062,34.551183,-121.959495,15.455,32.988,0.271,0.347
20050430,015418,1335091,34.551886,-121.957918,15.451,32.993,0.265,0.338
20050430,015448,1335121,34.552590,-121.956333,15.449,32.995,0.271,0.343
20050430,015518,1335151,34.553306,-121.954760,15.447,32.995,0.271,0.343
20050430,015548,1335181,34.553996,-121.953170,15.439,33.001,0.271,0.344
20050430,015618,1335211,34.554705,-121.951583,15.430,33.006,0.271,0.343
20050430,015649,1335242,34.555423,-121.949988,15.421,33.009,0.271,0.342
20050430,015719,1335272,34.556135,-121.948398,15.415,33.012,0.271,0.341
20050430,015748,1335301,34.556855,-121.946793,15.409,33.012,0.277,0.348
20050430,015818,1335331,34.557558,-121.945201,15.402,33.016,0.277,0.347
20050430,015848,1335361,34.558275,-121.943593,15.397,33.014,0.277,0.346
20050430,015918,1335391,34.558981,-121.941990,15.393,33.013,0.277,0.345
20050430,015949,1335422,34.559686,-121.940388,15.394,33.006,0.277,0.342
20050430,020018,1335451,34.560386,-121.938763,15.387,33.009,0.277,0.338
20050430,020048,1335481,34.561085,-121.937146,15.387,33.004,0.284,0.345
20050430,020118,1335511,34.561790,-121.935540,15.386,33.002,0.284,0.342
20050430,020148,1335541,34.562485,-121.933930,15.384,32.999,0.284,0.344
20050430,020219,1335572,34.563186,-121.932330,15.384,32.997,0.284,0.346
20050430,020248,1335601,34.563881,-121.930730,15.388,32.990,0.284,0.343
20050430,020318,1335631,34.564586,-121.929120,15.382,32.993,0.284,0.345
20050430,020348,1335661,34.565285,-121.927505,15.378,32.993,0.296,0.360
20050430,020419,1335692,34.565990,-121.925881,15.387,32.985,0.284,0.344
20050430,020448,1335721,34.566678,-121.924265,15.382,32.986,0.296,0.358
20050430,020518,1335751,34.567363,-121.922646,15.384,32.983,0.284,0.341
20050430,020549,1335782,34.568040,-121.921048,15.387,32.979,0.284,0.340
20050430,020618,1335811,34.568725,-121.919451,15.391,32.975,0.284,0.339
20050430,020648,1335841,34.569411,-121.917850,15.387,32.977,0.290,0.346
20050430,020719,1335872,34.570103,-121.916238,15.386,32.979,0.284,0.337
20050430,020749,1335902,34.570796,-121.914623,15.375,32.986,0.284,0.337
20050430,020818,1335931,34.571480,-121.913003,15.370,32.992,0.284,0.335
20050430,020848,1335961,34.572170,-121.911395,15.372,32.989,0.290,0.342
20050430,020918,1335991,34.572868,-121.909778,15.378,32.982,0.290,0.341
20050430,020949,1336022,34.573556,-121.908170,15.388,32.972,0.284,0.333
20050430,021019,1336052,34.574251,-121.906561,15.392,32.967,0.290,0.340
20050430,021048,1336081,34.574918,-121.905008,15.411,32.952,0.290,0.340
20050430,021118,1336111,34.575638,-121.903353,15.419,32.945,0.296,0.347
20050430,021148,1336141,34.576315,-121.901733,15.431,32.939,0.296,0.346
20050430,021218,1336171,34.576998,-121.900115,15.440,32.936,0.302,0.353
20050430,021248,1336201,34.577696,-121.898490,15.446,32.936,0.302,0.353
20050430,021319,1336232,34.578375,-121.896860,15.446,32.943,0.308,0.360
20050430,021348,1336261,34.579058,-121.895240,15.446,32.949,0.296,0.345
20050430,021418,1336291,34.579741,-121.893600,15.432,32.966,0.302,0.352
20050430,021449,1336322,34.580406,-121.891970,15.421,32.980,0.302,0.352
20050430,021518,1336351,34.581088,-121.890346,15.422,32.981,0.302,0.351
20050430,021549,1336382,34.581761,-121.888723,15.399,33.001,0.302,0.351
20050430,021618,1336411,34.582441,-121.887105,15.380,33.015,0.302,0.351
20050430,021648,1336441,34.583080,-121.885496,15.380,33.012,0.308,0.358
20050430,021718,1336471,34.583670,-121.883835,15.350,33.032,0.308,0.357
20050430,021748,1336501,34.584260,-121.882173,15.348,33.028,0.302,0.350
20050430,021818,1336531,34.584843,-121.880508,15.324,33.041,0.302,0.349
20050430,021849,1336562,34.585433,-121.878866,15.325,33.033,0.302,0.349
20050430,021918,1336591,34.586038,-121.877220,15.322,33.027,0.302,0.349
20050430,021949,1336622,34.586628,-121.875553,15.314,33.024,0.308,0.356
20050430,022019,1336652,34.587221,-121.873898,15.286,33.039,0.296,0.341
20050430,022048,1336681,34.587815,-121.872236,15.269,33.043,0.320,0.370
20050430,022118,1336711,34.588396,-121.870635,15.263,33.039,0.314,0.363
20050430,022148,1336741,34.589015,-121.868916,15.256,33.035,0.314,0.362
20050430,022218,1336771,34.589596,-121.867315,15.257,33.024,0.320,0.369
20050430,022248,1336801,34.590218,-121.865601,15.257,33.015,0.314,0.362
20050430,022319,1336832,34.590818,-121.863960,15.244,33.017,0.314,0.361
20050430,022348,1336861,34.591398,-121.862308,15.238,33.015,0.320,0.369
20050430,022418,1336891,34.591968,-121.860718,15.218,33.023,0.320,0.368
20050430,022449,1336922,34.592581,-121.859016,15.198,33.035,0.320,0.368
20050430,022518,1336951,34.593165,-121.857365,15.186,33.036,0.320,0.368
20050430,022548,1336981,34.593750,-121.855713,15.179,33.033,0.320,0.367
20050430,022618,1337011,34.594340,-121.854061,15.164,33.037,0.327,0.375
20050430,022648,1337041,34.594921,-121.852395,15.159,33.033,0.327,0.374
20050430,022718,1337071,34.595481,-121.850793,15.143,33.036,0.327,0.374
20050430,022748,1337101,34.596076,-121.849081,15.143,33.026,0.327,0.374
20050430,022819,1337132,34.596650,-121.847438,15.139,33.019,0.327,0.374
20050430,022848,1337161,34.597223,-121.845781,15.118,33.029,0.327,0.373
20050430,022918,1337191,34.597803,-121.844136,15.113,33.024,0.327,0.373
20050430,022949,1337222,34.598380,-121.842471,15.109,33.020,0.327,0.373
20050430,023018,1337251,34.598960,-121.840811,15.098,33.021,0.327,0.373
20050430,023048,1337281,34.599540,-121.839155,15.092,33.018,0.345,0.395
20050430,023118,1337311,34.600130,-121.837478,15.094,33.011,0.345,0.394
20050430,023148,1337341,34.600708,-121.835803,15.097,33.002,0.351,0.402
20050430,023219,1337372,34.601291,-121.834120,15.102,32.992,0.370,0.425
20050430,023248,1337401,34.601870,-121.832426,15.098,32.990,0.370,0.425
20050430,023318,1337431,34.602453,-121.830736,15.097,32.987,0.376,0.432
20050430,023348,1337461,34.603025,-121.829035,15.086,32.993,0.383,0.440
20050430,023418,1337491,34.603596,-121.827353,15.082,32.994,0.401,0.463
20050430,023448,1337521,34.604185,-121.825660,15.067,33.002,0.420,0.486
20050430,023518,1337551,34.604755,-121.823966,15.054,33.010,0.458,0.535
20050430,023548,1337581,34.605331,-121.822275,15.063,32.998,0.464,0.543
20050430,023618,1337611,34.605908,-121.820570,15.048,33.006,0.464,0.543
20050430,023648,1337641,34.606480,-121.818881,15.032,33.013,0.464,0.542
20050430,023719,1337672,34.607046,-121.817188,15.026,33.013,0.477,0.559
20050430,023748,1337701,34.607620,-121.815490,15.025,33.009,0.477,0.559
20050430,023818,1337731,34.608180,-121.813788,15.020,33.006,0.489,0.575
20050430,023848,1337761,34.608741,-121.812081,15.021,33.001,0.477,0.558
20050430,023918,1337791,34.609320,-121.810391,15.014,33.001,0.470,0.550
20050430,023948,1337821,34.609890,-121.808686,15.014,32.998,0.470,0.550
20050430,024019,1337852,34.610451,-121.806998,14.999,33.006,0.477,0.558
20050430,024048,1337881,34.611015,-121.805301,14.975,33.021,0.483,0.566
20050430,024118,1337911,34.611585,-121.803605,14.943,33.040,0.489,0.574
20050430,024148,1337941,34.612158,-121.801910,14.947,33.029,0.489,0.574
20050430,024218,1337971,34.612710,-121.800266,14.942,33.026,0.495,0.582
20050430,024248,1338001,34.613295,-121.798501,14.944,33.016,0.502,0.590
20050430,024318,1338031,34.613883,-121.796808,14.938,33.015,0.508,0.599
20050430,024349,1338062,34.614455,-121.795103,14.931,33.013,0.502,0.590